Regional Weather Roundup
Issued by NWS Tiyan, Guam

Home | Current Version | Previous Version | Text Only | Print | Product List | Glossary On
Versions: 1 2 3 4 5 6 7 8 9 10 11 12 13 14 15 16 17 18 19 20 21 22 23 24 25 26 27
000
ASGM40 PGUM 190612
RWRGUM
WEATHER ROUNDUP FOR THE MARIANAS
NATIONAL WEATHER SERVICE TIYAN GU
400 PM CHST THU JAN 19 2017

GUZ001>004-190700-
MARIANA ISLANDS-

CITY           SKY/WX    TMP DP  RH WIND       PRES   REMARKS
GUAM AIRPORT   LGT RAIN  81  75  83 NE16      29.92S
ANDERSEN AFB   CLOUDY    79  73  83 NE23      29.93S
ROTA AIRPORT   PTSUNNY   79  72  78 E16G25    29.94S
TINIAN AP      PTSUNNY   82  70  65 NE21      29.93S
SAIPAN AP      MOSUNNY   81  70  69 NE21G29   29.94S

$$





USA.gov is the U.S. government's official web portal to all federal, state and local government web resources and services.